Location: Pasadena, ca
(34.1243°N, 118.1037°W)
Time: 06:52:11
(UTC-07:00)

Envisat - Pass Details

Date: 08 October 2017
Orbit: 764 x 766 km, 98.2° (Epoch: 19 April)

Event Time Altitude Azimuth Distance (km) Brightness Sun altitude
Exits shadow 21:01:59 31° 336° (NNW) 1,317 4.4 -32.7°
Drops below altitude 10° 21:04:37 10° 343° (NNW) 2,307 5.8 -33.2°
Sets 21:06:57 0° 346° (NNW) 3,238 6.6 -33.7°
